Weather Roundup
Issued by NWS Chicago, IL

Home | Current Version | Previous Version | Text Only | Print | Product List | Glossary Off
Versions: 1 2 3 4 5 6 7 8 9 10 11 12 13 14 15 16 17 18 19 20 21 22 23 24 25 26 27 28 29 30 31 32 33 34 35 36 37 38 39 40 41 42 43 44 45 46 47 48 49 50

000
NZUS59 KLOT 131703
HRRLOT

CHICAGO AREA WEATHER ROUNDUP
NATIONAL WEATHER SERVICE CHICAGO/ROMEOVILLE IL
1100 AM CST WED DEC 13 2017

NOTE: "FAIR" INDICATES FEW OR NO CLOUDS BELOW 12,000 FEET WITH NO
SIGNIFICANT WEATHER AND/OR OBSTRUCTIONS TO VISIBILITY.

* THESE STATIONS ARE NOT UNDER NWS QUALITY CONTROL. THEY ALSO MAY NOT
  REPORT WEATHER SUCH AS PRECIPITATION OR FOG.

ILZ005-006-012>014-019>023-131800-
NORTHEAST ILLINOIS

CITY           SKY/WX    TMP DP  RH WIND       PRES   REMARKS
OHARE          CLOUDY    33  20  58 S14G23    29.36F WCI  23
MIDWAY         CLOUDY    34  19  54 S16G25    29.38F WCI  24
AURORA         CLOUDY    34  23  64 S14G22    29.37F WCI  25
LANSING*       MOSUNNY   33  19  57 S22G29    29.41F WCI  20
JOLIET*        CLOUDY    37  23  57 SW12G21   29.39F
WAUKEGAN       CLOUDY    31  20  63 S13G20    29.36F WCI  21
DUPAGE AIRPORT CLOUDY    32  23  69 S14       29.36F WCI  22
WHEELING       CLOUDY    33  20  58 S15       29.37F WCI  23
NORTHERLY ISL    N/A     33  17  52 S14         N/A  WCI  23
$$

WIZ051-052-058>065-066-070>072-131800-
SOUTHEAST WISCONSIN

CITY           SKY/WX    TMP DP  RH WIND       PRES   REMARKS
MILWAUKEE      CLOUDY    32  21  64 S8        29.36F WCI  25
KENOSHA*       CLOUDY    32  19  58 S14G24    29.36F WCI  22
RACINE*        CLOUDY    32  19  58 S8G20     29.37F WCI  25
WAUKESHA       CLOUDY    28  18  64 S10       29.34F WCI  19
$$

INZ001>003-010>013-019-020-131800-
NORTHWEST INDIANA

CITY           SKY/WX    TMP DP  RH WIND       PRES   REMARKS
GARY*          CLOUDY    34  10  37 S14G29    29.44F WCI  24
MICHIGAN CITY* NOT AVBL
RENSSELAER*    NOT AVBL
VALPARAISO     CLOUDY    32  15  49 S18G30    29.42F WCI  20
$$

LMZ740>746-131800-
SOUTHERN LAKE MICHIGAN

STATION/POSITION TIME  SKY/WX   TEMP WIND        PRES    VSBY
                                AIR  DIR/SP/G
                 (UTC)          (F)  (DEG/KT/KT) (MB)    (MI)
HARRISON CRIB    1630            33  190/ 31/ 33   N/A
BURNHAM HARBOR   1700            33  190/ 11/ 21   N/A
CALUMET HARBOR   1630            32  170/ 17/ 32  995.7F
BURNS HARBOR     1640            31  170/ 15/ 27  996.6F
MICHIGAN CITY    1640            29  160/ 19/ 24   N/A
$$

ABBREVIATIONS USED IN REMARKS
   TC - TEMPERATURE IN CELSIUS
  WCI - WIND CHILL INDEX
   HX - HEAT INDEX
  VSB - VISIBILITY
$$



USA.gov is the U.S. government's official web portal to all federal, state and local government web resources and services.